Location: Madrid
(40.4167°N, 3.7036°W)
Time: 11:04:39
(UTC+00:00)

ISS - Pass Details

Date: 03 May 2025
Orbit: 416 x 419 km, 51.6° (Epoch: 14 May)

Event Time Altitude Azimuth Distance (km) Brightness Sun altitude
Exits shadow 03:20:44 - 312° (NW) 2,166 -0.2 -18.8°
Reaches altitude 10° 03:23:11 10° 338° (NNW) 1,496 -0.7 -18.4°
Maximum altitude 03:24:50 13° 7° (N) 1,328 -0.6 -18.2°
Drops below altitude 10° 03:26:29 10° 37° (NE) 1,496 0.2 -17.9°
Sets 03:29:30 0° 67° (ENE) 2,359 1.5 -17.5°
